TimeCST,TemperatureF,Dew PointF,Humidity,Sea Level PressureIn,VisibilityMPH,Wind Direction,Wind SpeedMPH,Gust SpeedMPH,PrecipitationIn,Events,Conditions,WindDirDegrees,DateUTC
12:53 AM,-2.9,-11.0,68,30.32,10.0,NW,13.8,-,N/A,,Clear,310,2013-01-20 06:53:00
1:53 AM,-2.9,-11.0,68,30.36,10.0,WNW,15.0,-,N/A,,Clear,300,2013-01-20 07:53:00
2:53 AM,-2.9,-11.0,68,30.40,10.0,NW,12.7,-,N/A,,Clear,320,2013-01-20 08:53:00
3:53 AM,-2.9,-11.0,68,30.40,10.0,NW,13.8,-,N/A,,Clear,310,2013-01-20 09:53:00
4:53 AM,-2.9,-11.0,68,30.41,10.0,NW,11.5,-,N/A,,Clear,320,2013-01-20 10:53:00
5:53 AM,-2.9,-11.0,68,30.41,10.0,NW,9.2,-,N/A,,Clear,320,2013-01-20 11:53:00
6:53 AM,-2.9,-11.0,68,30.42,10.0,NW,8.1,-,N/A,,Clear,320,2013-01-20 12:53:00
7:53 AM,-4.0,-11.0,72,30.43,10.0,WNW,5.8,-,N/A,,Clear,300,2013-01-20 13:53:00
8:53 AM,-2.0,-11.0,66,30.47,10.0,WNW,11.5,-,N/A,,Mostly Cloudy,300,2013-01-20 14:53:00
9:53 AM,-0.9,-11.0,62,30.49,10.0,WNW,10.4,-,N/A,,Mostly Cloudy,300,2013-01-20 15:53:00
10:53 AM,-0.0,-11.0,60,30.49,10.0,West,9.2,-,N/A,,Overcast,270,2013-01-20 16:53:00
11:53 AM,1.9,-9.0,60,30.46,10.0,West,10.4,-,0.00,,Scattered Clouds,280,2013-01-20 17:53:00
12:53 PM,3.0,-8.0,60,30.43,10.0,West,9.2,-,N/A,,Overcast,280,2013-01-20 18:53:00
1:53 PM,3.9,-6.0,64,30.40,10.0,West,9.2,17.3,0.00,,Overcast,280,2013-01-20 19:53:00
2:53 PM,3.9,-5.1,66,30.40,4.0,WNW,13.8,-,0.00,Snow,Light Snow,290,2013-01-20 20:53:00
3:12 PM,3.2,-4.0,72,30.28,2.5,West,12.7,-,0.00,Snow,Light Snow,280,2013-01-20 21:12:00
3:21 PM,5.0,-5.8,61,30.28,3.0,WNW,16.1,-,0.00,Snow,Light Snow,290,2013-01-20 21:21:00
3:53 PM,5.0,-4.0,66,30.39,5.0,West,10.4,-,0.00,,Haze,280,2013-01-20 21:53:00
4:44 PM,3.2,-2.2,78,30.26,1.8,West,10.4,-,0.00,Snow,Light Snow,280,2013-01-20 22:44:00
4:53 PM,3.9,-2.0,76,30.37,1.2,West,10.4,-,0.00,Snow,Light Snow,270,2013-01-20 22:53:00
5:01 PM,5.0,-4.0,66,30.25,3.0,West,20.7,25.3,0.00,Snow,Light Snow,280,2013-01-20 23:01:00
5:51 PM,1.4,-5.8,72,30.25,10.0,WNW,15.0,-,0.00,,Partly Cloudy,300,2013-01-20 23:51:00
5:53 PM,1.9,-6.0,69,30.37,10.0,WNW,15.0,-,0.00,,Partly Cloudy,300,2013-01-20 23:53:00
6:53 PM,1.0,-9.9,60,30.38,10.0,WNW,12.7,-,N/A,,Clear,290,2013-01-21 00:53:00
7:53 PM,-0.9,-11.0,62,30.38,10.0,WNW,19.6,24.2,N/A,,Mostly Cloudy,300,2013-01-21 01:53:00
8:04 PM,-2.2,-11.2,66,30.26,10.0,WNW,17.3,-,N/A,,Scattered Clouds,300,2013-01-21 02:04:00
8:53 PM,-2.9,-13.0,62,30.38,10.0,NW,16.1,-,N/A,,Clear,310,2013-01-21 02:53:00
9:53 PM,-4.0,-13.0,65,30.38,10.0,NW,11.5,-,N/A,,Clear,310,2013-01-21 03:53:00
10:53 PM,-5.1,-14.1,65,30.39,10.0,NW,15.0,-,N/A,,Partly Cloudy,310,2013-01-21 04:53:00
11:33 PM,-5.8,-14.8,65,30.26,10.0,NW,9.2,-,N/A,,Mostly Cloudy,310,2013-01-21 05:33:00
11:41 PM,-5.8,-14.8,65,30.27,10.0,WNW,10.4,-,N/A,,Scattered Clouds,300,2013-01-21 05:41:00
11:53 PM,-6.0,-15.0,65,30.38,10.0,NW,13.8,-,N/A,,Partly Cloudy,310,2013-01-21 05:53:00